Weather History for KCRX - September, 2012

Change the Weather History Date:

Monday, September 10, 2012

  Actual Average Record
Temperature  
Mean Temperature 68 °F -  
Max Temperature 82 °F 87 °F 98 °F (1931)
Min Temperature 53 °F 64 °F 49 °F (1956)
Cooling Degree Days 2    
Growing Degree Days 18 (Base 50)    
Moisture  
Dew Point 53 °F    
Average Humidity 66    
Maximum Humidity 94    
Minimum Humidity 28    
Precipitation  
Precipitation 0.00 in - - ()
Sea Level Pressure  
Sea Level Pressure 30.12 in    
Wind  
Wind Speed 2 mph (North)    
Max Wind Speed 9 mph    
Max Gust Speed -    
Visibility 10 miles    
Events      
Averages and records for this station are not official NWS values.
T = Trace of Precipitation, MM = Missing Value Source: NWS Daily Summary

Daily Weather History Graph

Daily Weather History Graph

Search for Another Location

Airport or City:

Trip Planner

Search our weather history database for the weather conditions in past years. The results will help you decide how hot, cold, wet, or windy it might be!

Date:

Astronomy

Sep. 10, 2012 Rise Set
Actual Time 6:34 AM CDT 7:07 PM CDT
Civil Twilight 6:08 AM CDT 7:33 PM CDT
Nautical Twilight 5:38 AM CDT 8:03 PM CDT
Astronomical Twilight 5:08 AM CDT 8:33 PM CDT
Moon 1:05 AM CDT (9/10) 3:28 PM CDT (9/10)
Length of Visible Light 13h 24m
Length of Day
12h 33m
Waning Crescent, 30% of the Moon is Illuminated
Sep 10
Waning Crescent
Sep 15
New
Sep 22
First Quarter
Sep 29
Full
Oct 8
Last Quarter

Hourly Weather History & Observations

Time (CDT) Temp. Dew Point Humidity Pressure Visibility Wind Dir Wind Speed Gust Speed Precip Events Conditions
12:10 AM 60.8 °F 55.4 °F 82% 30.09 in 10.0 mi Calm Calm - N/A   Clear
12:30 AM 59.0 °F 55.4 °F 88% 30.09 in 10.0 mi Calm Calm - N/A   Clear
12:50 AM 60.8 °F 55.4 °F 82% 30.09 in 10.0 mi NW 3.5 mph - N/A   Unknown
1:10 AM 60.8 °F 55.4 °F 82% 30.09 in 10.0 mi NW 4.6 mph - N/A   Clear
1:30 AM 59.0 °F 55.4 °F 88% 30.09 in 10.0 mi NW 3.5 mph - N/A   Clear
1:50 AM 57.2 °F 55.4 °F 94% 30.09 in 10.0 mi Calm Calm - N/A   Clear
2:10 AM 59.0 °F 55.4 °F 88% 30.09 in 10.0 mi Calm Calm - N/A   Clear
2:30 AM 55.4 °F 53.6 °F 94% 30.09 in 10.0 mi NW 3.5 mph - N/A   Clear
2:50 AM 57.2 °F 53.6 °F 88% 30.09 in 10.0 mi West 3.5 mph - N/A   Clear
3:10 AM 55.4 °F 53.6 °F 94% 30.09 in 10.0 mi NNW 3.5 mph - N/A   Clear
3:30 AM 55.4 °F 53.6 °F 94% 30.09 in 10.0 mi Calm Calm - N/A   Unknown
3:50 AM 55.4 °F 53.6 °F 94% 30.09 in 10.0 mi NNW 4.6 mph - N/A   Unknown
4:10 AM 55.4 °F 53.6 °F 94% 30.10 in 10.0 mi Calm Calm - N/A   Unknown
4:30 AM 55.4 °F 53.6 °F 94% 30.10 in 10.0 mi Calm Calm - N/A   Unknown
4:50 AM 53.6 °F 51.8 °F 94% 30.11 in 10.0 mi Calm Calm - N/A   Clear
5:10 AM 53.6 °F 51.8 °F 94% 30.11 in 7.0 mi Calm Calm - N/A   Clear
5:30 AM 53.6 °F 51.8 °F 94% 30.12 in 1.8 mi Calm Calm - N/A   Clear
5:50 AM 53.6 °F 51.8 °F 94% 30.13 in 8.0 mi Calm Calm - N/A   Clear
6:10 AM 53.6 °F 50.0 °F 88% 30.13 in 10.0 mi Calm Calm - N/A   Clear
6:30 AM 53.6 °F 50.0 °F 88% 30.14 in 10.0 mi Calm Calm - N/A   Clear
6:50 AM 53.6 °F 50.0 °F 88% 30.15 in 5.0 mi Calm Calm - N/A   Clear
7:10 AM 53.6 °F 51.8 °F 94% 30.15 in 10.0 mi Calm Calm - N/A   Clear
7:30 AM 55.4 °F 53.6 °F 94% 30.15 in 10.0 mi Calm Calm - N/A   Clear
7:50 AM 57.2 °F 55.4 °F 94% 30.16 in 10.0 mi Calm Calm - N/A   Clear
8:10 AM 59.0 °F 53.6 °F 82% 30.16 in 10.0 mi NNW 3.5 mph - N/A   Clear
8:30 AM 62.6 °F 55.4 °F 77% 30.16 in 10.0 mi Calm Calm - N/A   Clear
8:50 AM 64.4 °F 57.2 °F 77% 30.16 in 10.0 mi NNW 3.5 mph - N/A   Clear
9:10 AM 68.0 °F 57.2 °F 68% 30.17 in 10.0 mi NE 3.5 mph - N/A   Clear
9:30 AM 71.6 °F 55.4 °F 57% 30.17 in 10.0 mi NE 4.6 mph - N/A   Clear
9:50 AM 71.6 °F 55.4 °F 57% 30.17 in 10.0 mi East 5.8 mph - N/A   Clear
10:10 AM 73.4 °F 53.6 °F 50% 30.17 in 10.0 mi NE 5.8 mph - N/A   Clear
10:30 AM 75.2 °F 53.6 °F 47% 30.17 in 10.0 mi Calm Calm - N/A   Clear
10:50 AM 75.2 °F 50.0 °F 41% 30.17 in 10.0 mi ESE 5.8 mph - N/A   Clear
11:10 AM 77.0 °F 51.8 °F 41% 30.17 in 10.0 mi North 4.6 mph - N/A   Clear
11:30 AM 77.0 °F 50.0 °F 39% 30.17 in 10.0 mi ENE 3.5 mph - N/A   Clear
11:50 AM 78.8 °F 51.8 °F 39% 30.16 in 10.0 mi ENE 3.5 mph - N/A   Clear
12:10 PM 77.0 °F 50.0 °F 39% 30.16 in 10.0 mi West 3.5 mph - N/A   Clear
12:30 PM 78.8 °F 51.8 °F 39% 30.15 in 10.0 mi NE 5.8 mph - N/A   Clear
12:50 PM 78.8 °F 50.0 °F 36% 30.15 in 10.0 mi NNE 5.8 mph - N/A   Clear
1:10 PM 78.8 °F 50.0 °F 36% 30.14 in 10.0 mi East 4.6 mph - N/A   Clear
1:30 PM 80.6 °F 50.0 °F 34% 30.13 in 10.0 mi NNW 6.9 mph - N/A   Clear
1:50 PM 80.6 °F 50.0 °F 34% 30.12 in 10.0 mi NNW 9.2 mph - N/A   Clear
2:10 PM 80.6 °F 50.0 °F 34% 30.11 in 10.0 mi NW 6.9 mph - N/A   Clear
2:30 PM 80.6 °F 50.0 °F 34% 30.10 in 10.0 mi NNE 4.6 mph - N/A   Clear
2:50 PM 80.6 °F 48.2 °F 32% 30.10 in 10.0 mi West 3.5 mph - N/A   Clear
3:10 PM 80.6 °F 48.2 °F 32% 30.09 in 10.0 mi Calm Calm - N/A   Clear
3:30 PM 82.4 °F 48.2 °F 30% 30.09 in 10.0 mi WNW 5.8 mph - N/A   Clear
3:50 PM 82.4 °F 48.2 °F 30% 30.09 in 10.0 mi NNE 5.8 mph - N/A   Clear
4:10 PM 82.4 °F 48.2 °F 30% 30.09 in 10.0 mi NW 3.5 mph - N/A   Clear
4:30 PM 82.4 °F 46.4 °F 28% 30.09 in 10.0 mi NNW 5.8 mph - N/A   Clear
4:50 PM 82.4 °F 48.2 °F 30% 30.09 in 10.0 mi NNE 5.8 mph - N/A   Clear
5:10 PM 80.6 °F 46.4 °F 30% 30.09 in 10.0 mi NW 4.6 mph - N/A   Clear
5:30 PM 80.6 °F 48.2 °F 32% 30.09 in 10.0 mi North 4.6 mph - N/A   Clear
6:10 PM 77.0 °F 50.0 °F 39% 30.09 in 10.0 mi North 5.8 mph - N/A   Clear
6:30 PM 77.0 °F 50.0 °F 39% 30.09 in 10.0 mi North 5.8 mph - N/A   Clear
6:50 PM 75.2 °F 51.8 °F 44% 30.09 in 10.0 mi North 3.5 mph - N/A   Clear
7:10 PM 73.4 °F 53.6 °F 50% 30.09 in 10.0 mi North 3.5 mph - N/A   Clear
7:30 PM 69.8 °F 53.6 °F 56% 30.09 in 10.0 mi Calm Calm - N/A   Clear
7:50 PM 68.0 °F 53.6 °F 60% 30.09 in 10.0 mi Calm Calm - N/A   Clear
8:10 PM 66.2 °F 55.4 °F 68% 30.10 in 10.0 mi Calm Calm - N/A   Clear
8:30 PM 66.2 °F 55.4 °F 68% 30.11 in 10.0 mi Calm Calm - N/A   Clear
8:50 PM 64.4 °F 55.4 °F 73% 30.11 in 10.0 mi WNW 3.5 mph - N/A   Clear
9:10 PM 60.8 °F 55.4 °F 82% 30.11 in 10.0 mi WNW 3.5 mph - N/A   Clear
9:30 PM 60.8 °F 55.4 °F 82% 30.12 in 10.0 mi Calm Calm - N/A   Clear
9:50 PM 60.8 °F 55.4 °F 82% 30.12 in 10.0 mi Calm Calm - N/A   Clear
10:10 PM 59.0 °F 55.4 °F 88% 30.13 in 10.0 mi Calm Calm - N/A   Clear
10:30 PM 59.0 °F 55.4 °F 88% 30.13 in 10.0 mi Calm Calm - N/A   Clear
10:50 PM 59.0 °F 55.4 °F 88% 30.13 in 10.0 mi Calm Calm - N/A   Clear
11:10 PM 59.0 °F 55.4 °F 88% 30.13 in 10.0 mi Calm Calm - N/A   Clear
11:30 PM 57.2 °F 55.4 °F 94% 30.13 in 10.0 mi Calm Calm - N/A   Clear
11:50 PM 59.0 °F 55.4 °F 88% 30.13 in 10.0 mi Calm Calm - N/A   Clear